Location: Tel Aviv
(32.0670°N, 34.7670°E)
Time: 09:38:04
(UTC+02:00)

Transit 4A - Visible Passes

Search period start: 07 December 2023 00:00
Search period end: 17 December 2023 00:00
Orbit: 864 x 979 km, 66.8° (Epoch: 06 December)

Date Brightness Start Highest point End Pass type
(mag) Time Alt. Az. Time Alt. Az. Time Alt. Az.
07 Dec 9.7 03:36:40 20° NNE 03:38:23 23° NE 03:42:58 10° ESE visible
07 Dec 8.1 05:20:13 15° NW 05:24:54 47° WSW 05:30:28 10° S visible
07 Dec 7.8 18:33:37 10° SSW 18:40:00 79° ESE 18:41:26 56° NE visible
07 Dec 10.5 20:23:08 10° W 20:25:00 14° WNW 20:25:00 14° WNW visible
08 Dec 9.1 03:46:27 31° NNE 03:47:42 34° ENE 03:53:00 10° ESE visible
08 Dec 8.7 05:30:01 15° WNW 05:33:51 29° WSW 05:38:47 10° SSW visible
08 Dec 9.6 16:59:59 10° SE 17:03:26 15° ESE 17:06:53 10° ENE visible
08 Dec 8.1 18:42:44 10° SSW 18:49:06 70° WNW 18:51:16 43° N visible
09 Dec 8.4 03:56:18 50° NE 03:56:56 53° ENE 04:02:38 10° SE visible
09 Dec 9.2 05:39:52 13° WNW 05:42:42 18° WSW 05:46:32 10° SW visible
09 Dec 9.1 17:07:19 10° SSE 17:12:18 24° ESE 17:17:16 10° NE visible
09 Dec 8.8 18:52:11 10° SW 18:58:17 46° WNW 19:01:02 30° N visible
10 Dec 7.8 04:06:13 81° E 04:06:13 81° E 04:11:55 10° SSE visible
10 Dec 9.6 05:50:38 10° W 05:51:30 10° W 05:52:22 10° WSW visible
10 Dec 8.6 17:15:24 10° S 17:21:13 38° ESE 17:27:01 10° NE visible
10 Dec 9.5 19:01:58 10° WSW 19:07:34 31° WNW 19:10:41 21° NNW visible
11 Dec 8.0 04:16:08 55° SSW 04:16:08 55° SSW 04:20:53 10° SSE visible
11 Dec 8.1 17:23:57 10° S 17:30:12 59° ESE 17:36:26 10° NE visible
11 Dec 10.0 19:12:11 10° W 19:16:55 21° NW 19:20:16 15° NNW visible
12 Dec 10.6 02:42:31 10° ESE 02:42:31 10° ESE 02:42:33 10° ESE visible
12 Dec 8.8 04:26:05 31° SSW 04:26:05 31° SSW 04:29:30 10° S visible
12 Dec 8.0 17:32:51 10° SSW 17:39:15 89° ESE 17:45:39 10° NNE visible
12 Dec 10.4 19:23:02 10° W 19:26:22 14° NW 19:29:42 10° NNW visible
13 Dec 9.5 04:36:01 17° SSW 04:36:01 17° SSW 04:37:40 10° SSW visible
13 Dec 8.5 17:42:04 10° SW 17:48:22 61° WNW 17:54:40 10° NNE visible
14 Dec 9.1 17:51:37 10° SW 17:57:35 41° WNW 18:03:32 10° N visible
15 Dec 9.7 18:01:32 10° WSW 18:06:52 28° NW 18:12:12 10° N visible
16 Dec 10.2 18:11:55 10° W 18:16:16 19° NW 18:20:36 10° N visible
